STARLINK-32143, 60296

Orbit data source: Space-Track

STARLINK-32143, 60296 is a payload satellite owned by SpaceX/Seattle (US) in LEO that was launched on Sun, 28 Jul 2024 UTC via an FALCON 9 launch vehicle from the Air Force Eastern Test Range (AFETR). Payload-class satellites include a variety of spacecraft equipped with specific instruments for various scientific and technological missions. These include communications satellites like Starlink; space stations such as the ISS; scientific satellites like the Hubble; Earth observation satellites from companies like Planet Labs, Umbra, and HawkEye 360; GPS; miniature CubeSats for education and research; and military/defense satellites.

Loading next visibility...
Identifier
60296, 2024-132U
Orbit
LEO
Last TLE update
15 hours ago
Origin
Manufacturer
SpaceX/Seattle
Mission
Operational spacecraft
Bus & Motor
STARLINK V2M, Unknown motor
Mass
730 kg wet, ~700 kg dry
Launch date (UTC)
2024-07-28 (11 months ago)
Launch vehicle
FALCON 9
Launch site
Air Force Eastern Test Range (AFETR)
Object type
Payload
Rocket body
Debris
Shape & HBR
Unknown
Radar Cross Section
Large (>1 m²)

Expand to show TLE details & history

TLE from 15 hours ago
0 STARLINK-32143
1 60296U 24132U   25182.59704103 -.00000310  00000-0  16621-5 0  9998
2 60296  53.1606 138.9698 0001454  92.8233 267.2934 15.30191607 53117
Epoch: 2025-07-01T14:19Z
TLE epoch observation values (Epoch: 2025-07-01T14:19:44.344Z)
Latitude
-0.00006°
Longitude
4.14477°
Altitude
476.187 km
Speed
7.629 km/s
True Right ascension
09h 15m 52s
True Declination
0° 00' 00"
Sunlit
Object was in daylight at epoch
Visualization orbit readout
Latitude
52.80323°
Longitude
102.32458°
Altitude
480.703 km
Speed
7.632 km/s
Apparent Right ascension
07h 29m 38s
Apparent Declination
50° 05' 26"
Sunlit
Object is in daylight
Visualization observer readout
Local Sidereal Time
16:32:54
Azimuth
333.156° NNW
Elevation
8.009°
Doppler factor
1
Orbital elements
Apogee altitude
476.493 km
Perigee altitude
474.5 km
Semi-major axis
6,853.633 km
Eccentricity
0.00015
Inclination
53.1606°
RAAN
138.9698°
Arg. of periapsis
92.8233°
True anomaly
Unknown
Mean anomaly
267.2934°
Eccentric anomaly
Unknown
Mean motion
3.82527 °/min
Orbital period
94.11 mins
BSTAR
0.0000016621
Loading maneuver chart data...
Loading SW <> Apogee altitude chart data...
Loading historical data...
Loading historical data...
Loading historical data...
Loading historical data...
Loading historical data...
Loading historical data...
Loading historical data...

STARLINK-32143 Visibility forecast

Observer location: undefined°, undefined°

Span
Click to sort rows by Start time (UTC) header in descending order
Start Az.
Max El. time (UTC)
Max El. Az.
Max El.
End time (UTC)
End Az.
4 mins2025-07-02 04:52:26.067Z345.161° N2025-07-02 04:54:26.067Z21.192° NNE15.451°2025-07-02 04:56:26.067Z56.069° ENE
6 mins2025-07-02 06:30:26.067Z318.228° NNW2025-07-02 06:32:26.067Z357.329° N41.236°2025-07-02 06:36:26.067Z121.887° SE
5 mins2025-07-02 23:26:26.067Z214.841° SW2025-07-02 23:28:26.067Z116.582° SE42.818°2025-07-02 23:31:26.067Z55.209° ENE
|